Simultaneous Nadir Overpasses (SNOs) Predictions

Prediction of SNOs between GOES-16 and AQUA Satellite Orbit:

Table of predicted SNOs for the next 14.0 days since TLE Epoch: 3/11/2023
Index Date Time (GOES-16) GOES-16 Lat,Lon AQUA Lat,Lon Distance(km) Time Diff (sec)
1 03/12/2023 18:37:18 0.07, -75.21 0.63, -72.64 292.20 80
2 03/13/2023 06:58:12 -0.06, -75.21 0.45, -77.71 283.36 80
3 03/15/2023 06:41:58 -0.06, -75.22 -0.25, -74.40 93.75 80
4 03/15/2023 19:03:01 0.06, -75.22 -0.83, -79.50 485.87 80
5 03/17/2023 06:28:23 -0.05, -75.23 -0.97, -71.09 471.76 80
6 03/17/2023 18:49:25 0.05, -75.23 -0.15, -76.18 107.47 80
7 03/19/2023 18:36:34 0.04, -75.25 0.55, -72.86 272.34 34
8 03/20/2023 06:59:21 -0.04, -75.26 0.52, -77.92 301.96 80
9 03/22/2023 06:43:02 -0.04, -75.29 -0.16, -74.59 79.61 80
10 03/22/2023 19:06:44 0.03, -75.30 -0.90, -79.69 498.95 80
11 03/24/2023 06:29:23 -0.04, -75.33 -0.93, -71.27 462.29 80
12 03/24/2023 18:53:04 0.04, -75.33 -0.17, -76.36 115.89 80
